QPF
0.00 0.00 0.00 0.00 0.00 0.00 0.00 0.00 0.00 0.00 0.00 0.00 0.00 0.00 0.00 0.00 0.00 0.00 0.00 0.00 0.00 0.00 0.00 0.00 0.00 0.00 0.00 0.00 0.00 0.00 0.00 0.00 0.00 0.00 0.00 0.00 0.00 0.00 0.00 0.00 0.00 0.00 0.00 0.00 0.00
0.00 0.00 0.00 0.00 0.00 0.00 0.00 0.00 0.00 0.00 0.00 0.00 0.00 0.00 0.00 0.00 0.00 0.00 0.00 0.00 0.00 0.00 0.00 0.00 0.00 0.00 0.00 0.00 0.00 0.00 0.00 0.00 0.00 0.00 0.00 0.00 0.00 0.00 0.00 0.00 0.00 0.00 0.00 0.00 0.00
0.00 0.00 0.00 0.00 0.00 0.00 0.00 0.00 0.00 0.00 0.00 0.00 0.00 0.00 0.00 0.00 0.00 0.00 0.00 0.00 0.00 0.00 0.00 0.00 0.00 0.00 0.00 0.00 0.00 0.00 0.00 0.00 0.00 0.00 0.00 0.00 0.00 0.00 0.00 0.00 0.00 0.00 0.00 0.00 0.00
0.00 0.00 0.00 0.00 0.00 0.00 0.00 0.00 0.00 0.00 0.00 0.00 0.00 0.00 0.00 0.00 0.00 0.00 0.00 0.00 0.00 0.00 0.00 0.00 0.00 0.00 0.00 0.00 0.00 0.00 0.00 0.00 0.00 0.00 0.00 0.00 0.00 0.00 0.00 0.00 0.00 0.00 0.00 0.00 0.00
0.00 0.00 0.00 0.00 0.00 0.00 0.00 0.00 0.00 0.00 0.00 0.00 0.00 0.00 0.00 0.00 0.00 0.00 0.00 0.00 0.00 0.00 0.00 0.00 0.00 0.00 0.00 0.00 0.00 0.00 0.00 0.00 0.00 0.00 0.00 0.00 0.00 0.00 0.00 0.00 0.00 0.00 0.00 0.00 0.00
0.00 0.00 0.00 0.00 0.00 0.00 0.00 0.00 0.00 0.00 0.00 0.00 0.00 0.00 0.00 0.00 0.00 0.00 0.00 0.00 0.00 0.00 0.00 0.00 0.00 0.00 0.00 0.00 0.00 0.00 0.00 0.00 0.00 0.00 0.00 0.00 0.00 0.00 0.00 0.00 0.00 0.00 0.00 0.00 0.00
0.00 0.00 0.00 0.00 0.00 0.00 0.00 0.00 0.00 0.00 0.00 0.00 0.01 0.00 0.00 0.00 0.00 0.00 0.00 0.00 0.00 0.00 0.00 0.00 0.00 0.00 0.00 0.00 0.00 0.00 0.00 0.00 0.00 0.00 0.00 0.00 0.00 0.00 0.00 0.00 0.00 0.00 0.00 0.00 0.00
0.00 0.00 0.00 0.00 0.00 0.00 0.00 0.00 0.00 0.00 0.00 0.00 0.00 0.00 0.00 0.00 0.00 0.00 0.00 0.00 0.00 0.00 0.00 0.00 0.00 0.00 0.00 0.00 0.00 0.00 0.00 0.00 0.00 0.00 0.00 0.00 0.00 0.00 0.00 0.00 0.00 0.00 0.00 0.00 0.00
0.00 0.00 0.00 0.00 0.00 0.00 0.00 0.00 0.00 0.00 0.00 0.00 0.00 0.00 0.00 0.00 0.00 0.00 0.00 0.00 0.00 0.00 0.00 0.00 0.00 0.00 0.00 0.00 0.00 0.00 0.00 0.00 0.00 0.00 0.00 0.00 0.00 0.00 0.00 0.00 0.00 0.00 0.00 0.00 0.00
0.00 0.00 0.00 0.00 0.00 0.00 0.00 0.00 0.00 0.00 0.00 0.00 0.00 0.00 0.00 0.00 0.00 0.00 0.00 0.00 0.00 0.00 0.00 0.00 0.00 0.00 0.00 0.00 0.00 0.00 0.00 0.00 0.00 0.00 0.00 0.00 0.00 0.00 0.00 0.00 0.00 0.00 0.00 0.00 0.00
0.00 0.00 0.00 0.00 0.00 0.00 0.00 0.00 0.00 0.00 0.00 0.00 0.00 0.00 0.00 0.00 0.00 0.00 0.00 0.00 0.00 0.00 0.00 0.00 0.00 0.00 0.00 0.00 0.00 0.00 0.00 0.00 0.00 0.00 0.00 0.00 0.00 0.00 0.00 0.00 0.00 0.00 0.00 0.00 0.00
0.00 0.00 0.00 0.00 0.00 0.00 0.00 0.00 0.00 0.00 0.00 0.00 0.00 0.00 0.00 0.00 0.00 0.00 0.00 0.00 0.00 0.00 0.00 0.00 0.00 0.00 0.00 0.00 0.00 0.00 0.00 0.00 0.00 0.00 0.00 0.00 0.00 0.00 0.00 0.00 0.00 0.00 0.00 0.00 0.00
0.00 0.00 0.00 0.00 0.00 0.00 0.00 0.00 0.00 0.00 0.00 0.00 0.00 0.00 0.00 0.00 0.00 0.00 0.00 0.00 0.00 0.00 0.00 0.00 0.00 0.00 0.00 0.00 0.00 0.00 0.00 0.00 0.00 0.00 0.00 0.00 0.00 0.00 0.00 0.00 0.00 0.00 0.00 0.00 0.00
0.00 0.00 0.00 0.00 0.00 0.00 0.00 0.00 0.00 0.00 0.00 0.00 0.00 0.00 0.00 0.00 0.00 0.00 0.00 0.00 0.00 0.00 0.00 0.00 0.00 0.00 0.00 0.00 0.00 0.00 0.00 0.00 0.00 0.00 0.00 0.00 0.00 0.00 0.00 0.00 0.00 0.00 0.00 0.00 0.00
0.00 0.00 0.00 0.00 0.00 0.00 0.00 0.00 0.00 0.00 0.00 0.00 0.00 0.00 0.00 0.00 0.00 0.00 0.00 0.00 0.00 0.00 0.00 0.00 0.00 0.00 0.00 0.00 0.00 0.00 0.00 0.00 0.00 0.00 0.00 0.00 0.00 0.00 0.00 0.00 0.00 0.00 0.00 0.00 0.00
0.00 0.00 0.00 0.00 0.00 0.00 0.00 0.00 0.00 0.00 0.00 0.00 0.00 0.00 0.00 0.00 0.00 0.00 0.00 0.00 0.00 0.00 0.00 0.00 0.00 0.00 0.00 0.00 0.00 0.00 0.00 0.00 0.00 0.00 0.00 0.00 0.00 0.00 0.00 0.00 0.00 0.00 0.00 0.00 0.00
0.00 0.00 0.00 0.00 0.00 0.00 0.00 0.00 0.00 0.00 0.00 0.00 0.00 0.00 0.00 0.00 0.00 0.00 0.00 0.00 0.00 0.00 0.00 0.00 0.00 0.00 0.00 0.00 0.00 0.00 0.00 0.00 0.00 0.00 0.00 0.00 0.00 0.00 0.00 0.00 0.00 0.00 0.00 0.00 0.00
0.00 0.00 0.00 0.00 0.00 0.00 0.00 0.00 0.00 0.00 0.00 0.00 0.01 0.00 0.00 0.00 0.00 0.00 0.00 0.00 0.00 0.00 0.00 0.00 0.00 0.00 0.00 0.00 0.00 0.00 0.00 0.00 0.00 0.00 0.00 0.00 0.00 0.00 0.00 0.00 0.00 0.00 0.00 0.00 0.00
0.00 0.00 0.00 0.00 0.00 0.00 0.00 0.00 0.00 0.00 0.00 0.00 0.00 0.01 0.00 0.00 0.00 0.00 0.00 0.00 0.00 0.00 0.00 0.00 0.00 0.00 0.00 0.00 0.00 0.00 0.00 0.00 0.00 0.00 0.01 0.00 0.00 0.00 0.00 0.00 0.00 0.00 0.00 0.00 0.00
0.00 0.00 0.00 0.00 0.00 0.00 0.01 0.00 0.00 0.00 0.00 0.01 0.01 0.01 0.01 0.01 0.01 0.00 0.00 0.00 0.00 0.00 0.00 0.00 0.00 0.00 0.00 0.00 0.00 0.00 0.00 0.00 0.00 0.03 0.03 0.00 0.00 0.00 0.00 0.00 0.00 0.00 0.00 0.00 0.00
0.00 0.00 0.01 0.00 0.00 0.01 0.01 0.00 0.00 0.00 0.00 0.00 0.00 0.00 0.00 0.01 0.01 0.01 0.01 0.00 0.00 0.00 0.00 0.00 0.01 0.01 0.00 0.00 0.00 0.00 0.00 0.00 0.01 0.01 0.04 0.03 0.02 0.00 0.00 0.00 0.00 0.00 0.00 0.00 0.00
0.01 0.00 0.02 0.00 0.02 0.03 0.01 0.00 0.00 0.00 0.00 0.00 0.00 0.00 0.00 0.00 0.01 0.01 0.01 0.00 0.00 0.00 0.00 0.00 0.00 0.01 0.00 0.00 0.00 0.00 0.00 0.00 0.02 0.02 0.02 0.02 0.01 0.00 0.00 0.00 0.00 0.00 0.00 0.00 0.00
0.01 0.00 0.00 0.02 0.03 0.06 0.08 0.04 0.04 0.02 0.01 0.00 0.00 0.00 0.00 0.00 0.03 0.03 0.03 0.01 0.00 0.00 0.00 0.00 0.00 0.04 0.04 0.02 0.00 0.00 0.00 0.00 0.00 0.03 0.04 0.07 0.03 0.00 0.00 0.00 0.00 0.00 0.00 0.00 0.00
0.03 0.01 0.05 0.09 0.09 0.09 0.06 0.03 0.07 0.05 0.03 0.02 0.02 0.04 0.05 0.02 0.01 0.07 0.04 0.01 0.00 0.00 0.00 0.01 0.01 0.01 0.05 0.05 0.00 0.00 0.00 0.00 0.01 0.07 0.03 0.01 0.00 0.00 0.00 0.00 0.00 0.00 0.00 0.00 0.00
0.04 0.02 0.05 0.06 0.08 0.06 0.04 0.04 0.06 0.04 0.02 0.07 0.07 0.05 0.06 0.06 0.02 0.07 0.10 0.02 0.00 0.01 0.00 0.01 0.05 0.05 0.06 0.01 0.01 0.01 0.00 0.00 0.00 0.00 0.02 0.00 0.00 0.00 0.01 0.00 0.00 0.00 0.00 0.00 0.00
0.04 0.05 0.04 0.02 0.03 0.04 0.04 0.06 0.04 0.01 0.01 0.02 0.05 0.06 0.04 0.04 0.06 0.07 0.09 0.07 0.04 0.02 0.03 0.02 0.02 0.05 0.05 0.00 0.00 0.00 0.00 0.00 0.00 0.00 0.00 0.00 0.00 0.00 0.00 0.00 0.00 0.00 0.00 0.00 0.00
0.05 0.07 0.04 0.01 0.02 0.02 0.05 0.07 0.04 0.01 0.00 0.02 0.02 0.03 0.05 0.04 0.01 0.01 0.02 0.03 0.03 0.03 0.05 0.06 0.04 0.03 0.02 0.00 0.00 0.00 0.00 0.00 0.00 0.00 0.00 0.00 0.00 0.00 0.00 0.00 0.00 0.00 0.00 0.00 0.00
MSLP
1020.51 1020.16 1019.86 1019.55 1019.24 1018.94 1018.60 1018.27 1018.05 1017.73 1017.34 1016.98 1016.63 1016.38 1016.05 1015.48 1014.85 1013.63 1011.59 1010.00 1009.91 1010.35 1011.01 1009.50 1009.39 1008.61 1007.93 1006.75 1006.17 1005.79 1004.29 1001.86 1000.61 999.68 999.50 999.82 1001.21 1001.50 1002.35 1002.20 1002.15 1002.04 1001.98 1001.79 1002.46
1020.25 1019.94 1019.65 1019.33 1019.00 1018.69 1018.35 1018.06 1017.74 1017.35 1017.05 1016.80 1016.50 1016.18 1015.86 1015.50 1013.94 1010.41 1008.20 1008.97 1009.66 1010.46 1010.21 1008.46 1007.75 1007.64 1006.82 1006.02 1005.63 1005.22 1003.61 1001.79 1000.73 1000.17 999.95 1000.18 1001.48 1001.65 1002.64 1002.61 1002.34 1002.44 1002.39 1002.40 1002.69
1020.11 1019.70 1019.38 1019.04 1018.68 1018.39 1018.15 1017.80 1017.47 1017.21 1016.91 1016.62 1016.40 1016.19 1015.82 1015.19 1012.26 1006.80 1007.50 1008.11 1009.27 1010.05 1009.11 1007.63 1006.92 1006.63 1006.07 1005.25 1004.81 1004.38 1003.09 1001.68 1001.14 1001.86 1002.01 1001.66 1001.72 1002.00 1002.24 1002.17 1001.78 1001.72 1001.89 1002.06 1002.31
1019.88 1019.50 1019.17 1018.80 1018.45 1018.11 1017.83 1017.61 1017.32 1017.02 1016.71 1016.46 1016.19 1016.00 1015.70 1014.70 1009.60 1006.80 1007.97 1008.55 1009.10 1009.33 1008.88 1007.01 1006.28 1005.81 1005.05 1004.20 1004.12 1003.92 1003.05 1002.60 1001.64 1002.05 1002.84 1002.54 1002.42 1001.97 1002.08 1002.00 1001.90 1001.76 1002.04 1001.83 1001.64
1019.73 1019.38 1019.02 1018.67 1018.33 1018.00 1017.66 1017.26 1016.94 1016.63 1016.41 1016.21 1016.11 1015.92 1015.32 1012.18 1008.01 1006.81 1007.89 1008.49 1008.97 1008.86 1007.60 1006.33 1005.58 1005.17 1004.20 1003.81 1003.67 1003.18 1002.99 1002.32 1002.36 1002.51 1002.65 1002.59 1002.20 1002.20 1001.74 1001.84 1001.88 1001.79 1001.79 1001.84 1001.33
1019.51 1019.19 1018.85 1018.53 1018.22 1017.87 1017.46 1017.09 1016.67 1016.34 1016.06 1015.78 1015.55 1015.58 1014.51 1010.11 1005.67 1005.80 1006.77 1007.90 1007.28 1007.40 1006.54 1005.68 1005.04 1004.75 1004.03 1003.32 1003.00 1002.79 1002.99 1002.49 1002.09 1002.10 1002.27 1002.29 1001.86 1001.58 1001.34 1001.33 1001.42 1001.32 1001.46 1001.51 1001.81
1019.30 1018.89 1018.51 1018.16 1017.81 1017.47 1017.05 1016.69 1016.30 1015.85 1015.42 1015.16 1014.92 1014.89 1012.78 1007.76 1005.79 1005.59 1006.22 1006.67 1006.19 1006.14 1005.43 1005.13 1004.82 1004.59 1004.23 1003.41 1003.12 1002.90 1002.60 1002.28 1001.92 1001.65 1001.71 1001.70 1001.17 1000.52 1000.81 1000.65 1000.73 1001.16 1001.24 1001.21 1001.24
1019.09 1018.71 1018.35 1018.02 1017.64 1017.00 1016.49 1016.03 1015.58 1015.28 1014.81 1014.48 1014.50 1014.01 1010.09 1005.99 1006.18 1005.77 1005.52 1005.64 1005.75 1005.84 1005.21 1005.01 1004.89 1004.85 1004.07 1003.47 1003.31 1002.87 1002.49 1001.38 1000.60 1000.93 1001.22 1001.62 999.71 999.08 999.99 1000.15 1000.40 1000.48 1000.52 1000.63 1000.62
1018.81 1018.36 1017.91 1017.61 1017.23 1016.70 1016.12 1015.54 1014.84 1014.15 1014.16 1013.98 1013.68 1013.02 1007.73 1006.15 1005.77 1005.29 1005.05 1004.90 1005.29 1005.32 1005.53 1005.32 1005.51 1004.83 1004.39 1003.49 1003.15 1002.45 1001.24 1000.37 999.67 999.17 1000.30 1001.06 999.56 998.78 999.66 1000.00 999.95 999.88 1000.03 1000.22 1000.46
1018.61 1018.06 1017.67 1017.15 1016.71 1016.24 1015.68 1014.71 1013.78 1014.14 1013.74 1013.41 1012.30 1011.74 1006.50 1003.91 1003.65 1004.36 1004.98 1004.66 1004.98 1005.19 1005.64 1005.65 1005.04 1004.17 1003.39 1002.75 1001.08 1000.79 1000.73 999.76 998.81 999.18 1000.22 1000.01 999.67 998.91 999.50 999.44 999.75 999.69 999.68 999.76 1000.01
1018.40 1017.84 1017.38 1016.89 1016.28 1015.80 1014.93 1012.75 1012.65 1012.61 1012.18 1008.51 1006.66 1005.18 1002.74 1002.39 1002.99 1003.39 1004.19 1004.38 1004.57 1004.80 1004.20 1004.40 1003.84 1002.37 1001.65 1001.63 1001.33 1000.36 1000.04 1000.01 999.01 998.83 999.80 999.83 999.32 998.93 998.78 999.18 999.47 999.36 999.36 999.49 999.80
1018.17 1017.64 1017.08 1016.40 1015.57 1015.05 1014.76 1011.97 1009.21 1009.49 1007.46 1006.14 1005.32 1003.78 1002.76 1001.74 1002.28 1002.60 1003.40 1003.72 1003.60 1003.03 1003.55 1002.94 1001.83 1001.38 1001.52 1001.15 1001.12 1000.52 1000.08 999.61 999.63 1000.02 1000.10 1000.13 999.64 999.09 998.98 998.96 999.14 999.28 999.62 999.62 999.69
1017.83 1017.26 1016.69 1015.97 1015.22 1014.00 1012.11 1010.79 1009.73 1009.31 1006.90 1003.45 1001.65 1000.85 1001.22 1001.83 1001.15 1001.05 1002.41 1002.17 1002.12 1002.10 1001.72 1000.87 1000.18 1000.89 1000.41 1000.26 1000.39 1000.47 1000.17 1000.11 1000.10 999.99 1000.09 1000.25 999.97 999.45 998.89 999.09 999.55 1000.02 1000.08 999.67 999.80
1017.34 1016.81 1016.32 1015.67 1014.32 1012.41 1010.81 1010.03 1009.38 1009.25 1005.84 1000.36 998.68 997.95 998.66 1000.28 1000.01 999.75 1001.27 1001.33 1000.83 1000.63 1000.61 1000.13 999.53 999.30 999.68 999.68 1000.08 999.83 1000.48 1000.62 1000.28 1000.29 999.58 999.97 998.86 998.62 998.82 998.92 999.38 999.91 1000.05 1000.18 1000.26
1016.87 1016.31 1015.93 1015.58 1013.76 1012.00 1010.01 1009.72 1009.80 1009.18 1004.00 996.85 996.77 997.77 998.30 998.69 997.50 998.83 999.96 1000.46 999.58 999.50 999.87 998.76 998.96 998.82 998.83 999.21 999.72 999.66 999.83 1000.41 1001.24 1001.11 1000.13 998.93 998.65 997.16 997.33 997.87 998.76 999.89 1000.25 1000.86 1001.67
1016.65 1016.19 1015.64 1014.23 1012.98 1011.62 1010.60 1009.95 1009.70 1007.33 1000.76 997.39 997.52 998.01 998.06 998.24 997.17 997.34 998.61 999.98 999.72 998.88 998.82 998.25 998.28 998.42 998.75 998.88 999.41 999.83 1000.06 1000.32 1000.50 1000.48 999.98 998.98 998.15 996.87 997.17 997.22 998.05 999.90 1001.05 1002.05 1003.07
1015.93 1015.37 1015.20 1013.80 1011.57 1009.61 1009.74 1009.33 1007.48 1004.06 999.72 997.22 996.32 997.21 997.33 997.15 996.51 996.49 997.27 998.17 997.90 997.88 997.56 997.98 997.65 997.90 998.29 998.55 999.19 999.58 999.74 999.58 999.89 999.53 998.58 998.80 998.27 997.37 997.54 996.81 998.03 1000.00 1001.59 1002.82 1003.87
1015.38 1014.56 1012.78 1011.50 1010.95 1010.72 1010.87 1008.54 1004.76 1001.90 999.84 997.91 998.33 997.79 996.26 995.96 995.74 995.77 996.77 996.88 997.46 997.01 996.59 996.63 996.81 997.21 997.80 997.80 997.87 998.51 998.80 997.97 998.53 998.24 997.74 998.05 998.06 997.96 998.26 998.54 999.35 1000.35 1001.89 1003.19 1003.97
1014.30 1011.78 1010.16 1008.65 1008.59 1009.47 1009.87 1006.26 1001.95 1001.13 1000.00 998.71 998.42 997.58 998.88 995.79 995.17 995.48 995.92 995.77 996.11 996.21 996.03 995.57 995.57 996.22 996.83 997.57 997.24 997.82 997.98 998.36 998.75 999.57 999.85 998.11 998.07 998.96 999.14 999.36 999.81 1001.04 1002.19 1003.49 1004.32
1013.62 1010.89 1007.98 1007.84 1009.15 1009.76 1009.23 1005.17 1002.60 1000.55 1000.11 1000.14 1000.64 999.06 998.66 998.06 996.99 995.59 995.13 995.07 995.14 995.71 995.96 996.36 995.78 995.87 996.60 997.47 997.64 997.41 998.07 998.62 999.84 999.69 998.99 998.60 999.01 998.64 999.36 999.41 1000.46 1001.28 1002.38 1003.66 1004.73
1013.25 1009.63 1008.45 1008.44 1009.50 1009.86 1007.16 1003.32 1001.60 1000.82 1000.07 999.88 1000.34 1000.94 999.30 999.15 999.48 997.37 995.96 994.71 995.21 995.35 995.99 996.37 996.12 997.06 996.43 996.41 996.56 997.39 997.95 999.41 999.70 999.54 1000.04 999.50 999.85 1000.10 1000.61 1000.10 1000.71 1001.27 1002.29 1003.60 1004.58
1012.20 1009.22 1008.19 1008.91 1009.01 1007.76 1005.43 1003.06 1002.80 1000.59 1000.25 999.86 1001.14 999.70 999.24 999.79 999.74 1000.39 999.15 997.13 996.60 995.43 996.05 996.70 997.26 998.32 996.84 996.62 996.72 997.11 997.45 998.78 999.53 1000.29 1000.43 1000.89 1001.03 1000.64 1000.93 1000.90 1001.43 1001.16 1002.43 1003.58 1004.51
1012.38 1009.08 1006.73 1007.87 1007.52 1005.61 1004.83 1003.71 1002.25 1001.65 1000.90 1000.47 999.88 999.35 999.45 999.08 999.40 999.29 999.30 998.23 998.91 998.02 998.31 997.97 997.44 998.16 998.78 997.69 997.47 997.75 998.42 998.77 998.98 999.87 1000.13 1001.08 1001.09 1001.37 1000.86 1000.86 1001.54 1001.27 1002.52 1003.92 1005.00
1013.18 1008.71 1007.48 1008.09 1006.83 1006.27 1005.36 1003.99 1002.86 1003.06 1003.00 1002.78 1001.66 1000.35 1000.27 999.34 998.16 998.15 1000.00 1000.87 1000.40 999.90 1000.23 1000.06 999.52 998.43 997.98 997.96 998.06 997.72 997.62 997.98 998.75 1000.01 1000.21 999.93 999.91 1000.97 1001.15 1001.05 1001.22 1001.67 1002.88 1004.12 1005.33
1012.54 1009.46 1008.63 1007.33 1006.50 1006.01 1005.36 1005.06 1003.61 1003.92 1003.65 1002.51 1001.65 1000.79 1000.56 999.74 999.23 998.51 999.50 1001.12 1001.52 1001.46 1001.68 1001.93 1001.33 999.55 998.90 999.53 999.67 998.54 997.46 997.80 998.29 999.38 1000.38 999.18 999.38 1001.48 1002.12 1002.29 1001.70 1002.39 1003.18 1004.15 1005.19
1012.86 1010.96 1009.60 1008.64 1007.10 1005.87 1005.23 1004.15 1004.13 1004.40 1004.84 1003.75 1003.64 1002.54 1002.02 1001.14 1001.08 1000.35 999.57 1000.40 1000.33 1001.21 1001.67 1002.58 1002.35 1001.17 1000.16 999.73 999.36 998.42 998.62 998.74 998.36 998.49 998.30 998.50 998.75 999.79 1001.31 1002.20 1002.23 1002.73 1003.45 1004.49 1005.41
1013.17 1011.89 1011.06 1009.45 1007.34 1005.75 1004.64 1004.15 1004.08 1004.66 1004.76 1004.78 1004.17 1003.55 1002.69 1002.24 1001.62 1001.97 1001.43 1000.81 999.85 1000.22 1001.02 1001.76 1002.23 1001.88 1001.26 999.75 998.63 998.16 998.08 998.33 998.30 998.20 998.21 998.31 999.05 999.57 1001.01 1001.60 1002.15 1003.01 1004.36 1005.23 1006.52
Thickness
5664 5665 5665 5665 5665 5664 5664 5665 5665 5666 5667 5669 5671 5670 5671 5674 5679 5688 5698 5712 5714 5712 5708 5720 5720 5727 5733 5737 5746 5750 5729 5740 5760 5773 5780 5797 5770 5787 5790 5786 5793 5802 5805 5809 5812
5664 5664 5665 5665 5664 5663 5663 5663 5663 5664 5665 5665 5665 5666 5667 5669 5680 5704 5723 5718 5712 5705 5705 5714 5713 5719 5720 5729 5735 5729 5728 5745 5776 5779 5774 5784 5768 5775 5767 5770 5776 5784 5799 5806 5809
5662 5663 5663 5663 5664 5663 5662 5662 5662 5661 5661 5661 5662 5661 5662 5665 5686 5728 5723 5719 5708 5700 5707 5717 5720 5717 5712 5727 5729 5730 5727 5757 5765 5760 5762 5763 5765 5773 5762 5759 5776 5778 5787 5797 5801
5660 5661 5661 5661 5660 5660 5659 5658 5658 5658 5658 5658 5658 5656 5657 5664 5688 5726 5715 5707 5702 5699 5699 5710 5711 5705 5707 5713 5727 5714 5735 5743 5755 5755 5747 5747 5758 5758 5761 5765 5781 5786 5787 5791 5795
5658 5658 5657 5656 5655 5655 5655 5656 5655 5655 5655 5654 5652 5651 5655 5675 5696 5719 5708 5701 5695 5694 5698 5702 5701 5703 5701 5711 5717 5714 5724 5741 5743 5744 5746 5751 5748 5748 5755 5771 5780 5782 5783 5783 5789
5655 5654 5653 5653 5651 5650 5650 5651 5651 5651 5651 5650 5650 5648 5653 5671 5724 5720 5709 5698 5701 5696 5698 5704 5702 5709 5705 5709 5709 5720 5719 5726 5737 5739 5742 5737 5744 5751 5758 5771 5770 5775 5776 5781 5779
5651 5651 5650 5650 5649 5649 5647 5647 5648 5649 5648 5647 5647 5645 5656 5687 5714 5713 5706 5698 5703 5699 5697 5704 5706 5699 5702 5698 5714 5713 5704 5717 5726 5734 5732 5742 5732 5742 5759 5767 5764 5764 5769 5775 5779
5646 5645 5644 5643 5642 5643 5644 5645 5645 5643 5645 5645 5642 5642 5666 5706 5702 5701 5703 5697 5698 5696 5698 5702 5702 5692 5694 5706 5697 5695 5701 5695 5728 5730 5732 5726 5726 5756 5761 5758 5756 5762 5766 5769 5775
5641 5640 5639 5638 5636 5637 5638 5639 5642 5644 5640 5640 5640 5639 5673 5696 5688 5695 5697 5688 5688 5689 5687 5691 5683 5679 5682 5678 5674 5686 5682 5699 5719 5742 5726 5717 5727 5752 5757 5752 5751 5758 5762 5763 5764
5632 5633 5631 5631 5631 5630 5631 5635 5638 5632 5633 5632 5638 5634 5675 5690 5698 5691 5687 5687 5676 5672 5666 5665 5668 5666 5674 5671 5670 5681 5683 5704 5715 5724 5717 5711 5722 5741 5745 5747 5745 5751 5757 5759 5759
5624 5624 5623 5622 5623 5622 5625 5638 5637 5629 5628 5663 5672 5679 5695 5701 5697 5683 5681 5673 5669 5661 5654 5661 5653 5659 5677 5683 5688 5697 5695 5689 5716 5732 5706 5706 5719 5732 5741 5738 5740 5745 5749 5753 5753
5612 5612 5611 5611 5613 5613 5611 5627 5645 5639 5647 5666 5663 5675 5683 5692 5672 5674 5676 5657 5656 5654 5655 5655 5653 5678 5681 5683 5678 5683 5682 5690 5704 5705 5697 5698 5705 5723 5732 5730 5738 5738 5739 5745 5750
5602 5601 5599 5597 5598 5604 5616 5618 5625 5624 5629 5665 5681 5680 5676 5671 5668 5669 5666 5664 5656 5650 5656 5658 5674 5676 5676 5676 5671 5672 5672 5679 5682 5698 5700 5691 5685 5702 5723 5727 5728 5729 5734 5744 5744
5593 5590 5586 5585 5591 5601 5603 5608 5610 5606 5609 5661 5678 5687 5684 5670 5659 5681 5669 5661 5657 5653 5659 5659 5679 5675 5671 5668 5671 5662 5678 5674 5676 5675 5670 5694 5672 5698 5711 5712 5716 5718 5724 5730 5733
5580 5578 5573 5569 5580 5582 5596 5597 5590 5588 5590 5683 5670 5685 5673 5660 5677 5663 5671 5655 5654 5658 5656 5658 5664 5664 5664 5667 5675 5667 5685 5673 5663 5656 5674 5692 5680 5711 5722 5709 5709 5710 5715 5718 5717
5563 5558 5556 5560 5565 5567 5569 5571 5567 5569 5588 5648 5649 5645 5646 5652 5663 5669 5657 5654 5659 5655 5658 5665 5679 5672 5667 5676 5674 5676 5669 5670 5673 5667 5645 5677 5689 5705 5703 5715 5714 5703 5701 5699 5697
5551 5547 5540 5544 5553 5561 5550 5547 5550 5556 5625 5636 5643 5646 5643 5643 5654 5654 5648 5639 5641 5633 5639 5653 5660 5670 5672 5659 5667 5664 5656 5643 5641 5649 5651 5683 5680 5696 5705 5727 5713 5694 5690 5686 5685
5535 5531 5537 5537 5532 5523 5517 5528 5539 5578 5603 5640 5621 5615 5636 5649 5651 5651 5638 5634 5644 5649 5650 5641 5634 5657 5667 5663 5661 5659 5661 5664 5635 5657 5675 5693 5661 5682 5699 5708 5703 5692 5687 5680 5677
5525 5534 5535 5536 5528 5516 5505 5525 5565 5575 5596 5603 5611 5612 5573 5648 5653 5647 5639 5641 5649 5655 5642 5652 5653 5674 5670 5670 5679 5661 5654 5681 5661 5659 5638 5676 5690 5681 5691 5692 5688 5682 5677 5669 5667
5514 5522 5533 5524 5509 5497 5490 5518 5545 5574 5579 5574 5550 5593 5589 5595 5620 5639 5646 5656 5653 5659 5665 5650 5644 5668 5667 5666 5667 5668 5678 5649 5643 5625 5638 5664 5657 5665 5669 5678 5673 5669 5666 5661 5657
5494 5512 5513 5507 5493 5477 5504 5534 5548 5562 5567 5567 5562 5554 5587 5582 5573 5609 5635 5660 5659 5658 5661 5656 5652 5640 5665 5654 5654 5657 5649 5643 5651 5655 5628 5641 5648 5658 5649 5666 5665 5666 5663 5656 5652
5490 5500 5507 5493 5484 5491 5511 5531 5526 5552 5559 5562 5551 5576 5582 5578 5570 5559 5579 5612 5637 5658 5643 5653 5640 5600 5644 5666 5674 5667 5661 5652 5627 5623 5642 5628 5626 5659 5657 5661 5650 5663 5656 5652 5647
5479 5494 5509 5493 5487 5511 5514 5519 5528 5534 5545 5550 5558 5577 5583 5586 5582 5575 5568 5612 5608 5625 5621 5640 5637 5618 5596 5639 5653 5646 5644 5647 5657 5647 5633 5611 5622 5650 5658 5658 5655 5659 5648 5641 5634
5462 5492 5494 5486 5499 5497 5501 5513 5519 5519 5517 5520 5533 5552 5556 5573 5600 5598 5574 5572 5593 5601 5599 5609 5615 5629 5624 5622 5637 5639 5651 5659 5648 5618 5627 5636 5642 5640 5645 5649 5651 5650 5641 5632 5624
5461 5483 5480 5491 5495 5497 5501 5498 5514 5504 5514 5525 5537 5551 5556 5561 5576 5594 5591 5570 5574 5581 5585 5585 5591 5625 5632 5618 5594 5624 5646 5650 5640 5636 5603 5641 5646 5621 5619 5625 5639 5637 5633 5626 5619
5449 5457 5469 5476 5490 5496 5496 5509 5506 5504 5493 5516 5515 5531 5538 5545 5555 5566 5587 5578 5581 5580 5580 5573 5575 5596 5605 5621 5619 5623 5625 5628 5639 5643 5648 5650 5648 5651 5635 5627 5628 5628 5627 5618 5613
5437 5446 5446 5456 5484 5497 5503 5506 5507 5502 5504 5502 5511 5521 5532 5542 5549 5547 5558 5572 5587 5583 5576 5574 5577 5579 5576 5616 5625 5615 5626 5627 5633 5641 5642 5631 5639 5650 5629 5630 5623 5621 5613 5606 5599